sat.trackr.live / text

‹ back to catalog

GEESAT-2 11

NORAD 58915 · 2024-023L

PAYLOAD ACTIVE UNKNOWN

§ Identity

Operator
Country
PRC
Launch date
2024-02-02
Launch site
XICLF
Launch vehicle
Mass (kg)
RCS (m²)

External: N2YO · Heavens-Above · Gunter

§ Orbital elements

Epoch: 2026-09-22T17:02:35.572416Z

Period
97.07 min
Inclination
49.9994°
Eccentricity
0.0018195
Mean motion
14.83436001 rev/d
Perigee alt
605.8 km
Apogee alt
631.2 km
Semi-major
6,996.6 km
B*
1.5162e-4
RAAN
262.2524°
Arg perigee
127.2138°
Mean anomaly
233.0464°
Rev number
14,339

§ Raw data

GEESAT-2 111 58915U 24023L   26265.71013394  .00001031  00000+0  15162-3 0  99902 58915  49.9994 262.2524 0018195 127.2138 233.0464 14.83436001143397

JSON: /api/v1/satellites/58915 · /tle

For live sub-satellite position, see the globe view (requires WebGL).

§ Visibility from observer

Set your observer location to see the next 7 days of passes ≥ 10°. The values pass through the URL so the page stays shareable.

No JS? Fill the form by hand. The geolocation button needs JavaScript.